• In India
  • List of Countries
  • For 7 days
  • Water Temperature
  • Satellite Maps
  • Weather Map
  • Weather Widgets
  • user-avatar
    Login

    Hourly Weather Kosin

    Today, 26 May, Saturday

    Time Temperature Precipitation Wind Pressure Humidity
    00:00 +17°C° 0.6 mm 2 mps 753 mmHg 91%
    01:00 +16°C° 0 mm 2 mps 753 mmHg 92%
    02:00 +16°C° 0.8 mm 2 mps 753 mmHg 93%
    03:00 +16°C° 0.8 mm 2 mps 753 mmHg 94%
    04:00 +16°C° 0.8 mm 2 mps 753 mmHg 95%
    05:00 +17°C° 0.4 mm 2 mps 753 mmHg 92%
    06:00 +18°C° 0.4 mm 2 mps 753 mmHg 88%
    07:00 +20°C° 0.4 mm 3 mps 754 mmHg 85%
    08:00 +21°C° 0.3 mm 3 mps 754 mmHg 79%
    09:00 +24°C° 0.3 mm 3 mps 754 mmHg 72%
    10:00 +26°C° 0.3 mm 4 mps 754 mmHg 65%
    11:00 +26°C° 0.8 mm 4 mps 754 mmHg 64%
    12:00 +27°C° 0.8 mm 4 mps 754 mmHg 62%
    13:00 +27°C° 0.8 mm 4 mps 754 mmHg 61%
    14:00 +27°C° 0.5 mm 4 mps 754 mmHg 62%
    15:00 +27°C° 0.5 mm 4 mps 753 mmHg 64%
    16:00 +27°C° 0.5 mm 4 mps 753 mmHg 65%
    17:00 +25°C° 0.4 mm 4 mps 753 mmHg 70%
    18:00 +23°C° 0.4 mm 4 mps 753 mmHg 75%
    19:00 +21°C° 0.4 mm 3 mps 753 mmHg 81%
    20:00 +21°C° 0.3 mm 4 mps 753 mmHg 82%
    21:00 +20°C° 0.3 mm 4 mps 754 mmHg 84%
    22:00 +19°C° 0.3 mm 4 mps 754 mmHg 86%
    23:00 +18°C° 0 mm 4 mps 754 mmHg 87%

    Tomorrow, 27 May, Sunday

    Time Temperature Precipitation Wind Pressure Humidity
    00:00 +18°C° 0 mm 3 mps 754 mmHg 87%
    01:00 +17°C° 0 mm 3 mps 754 mmHg 88%
    02:00 +16°C° 0 mm 3 mps 754 mmHg 90%
    03:00 +16°C° 0 mm 3 mps 754 mmHg 92%
    04:00 +14°C° 0 mm 3 mps 754 mmHg 94%
    05:00 +17°C° 0 mm 3 mps 754 mmHg 90%
    06:00 +18°C° 0 mm 4 mps 754 mmHg 86%
    07:00 +19°C° 0 mm 4 mps 754 mmHg 82%
    08:00 +21°C° 0 mm 4 mps 754 mmHg 76%
    09:00 +22°C° 0 mm 4 mps 754 mmHg 70%
    10:00 +25°C° 0 mm 4 mps 754 mmHg 64%
    11:00 +25°C° 0 mm 4 mps 754 mmHg 62%
    12:00 +26°C° 0 mm 4 mps 754 mmHg 61%
    13:00 +27°C° 0 mm 4 mps 754 mmHg 59%
    14:00 +27°C° 0 mm 4 mps 754 mmHg 60%
    15:00 +27°C° 0 mm 4 mps 753 mmHg 60%
    16:00 +26°C° 0 mm 4 mps 753 mmHg 61%
    17:00 +25°C° 0 mm 4 mps 753 mmHg 68%
    18:00 +23°C° 0 mm 4 mps 753 mmHg 74%
    19:00 +21°C° 0 mm 3 mps 753 mmHg 80%
    20:00 +20°C° 0 mm 3 mps 754 mmHg 83%
    21:00 +19°C° 0 mm 3 mps 754 mmHg 87%
    22:00 +18°C° 0 mm 3 mps 754 mmHg 91%
    23:00 +17°C° 0 mm 3 mps 754 mmHg 91%

    Day after tomorrow, 28 May, Monday

    Time Temperature Precipitation Wind Pressure Humidity
    00:00 +17°C° 0 mm 3 mps 754 mmHg 92%
    01:00 +16°C° 0 mm 3 mps 755 mmHg 93%
    02:00 +14°C° 0 mm 3 mps 755 mmHg 92%
    03:00 +14°C° 0 mm 3 mps 755 mmHg 91%
    04:00 +13°C° 0 mm 3 mps 755 mmHg 91%
    05:00 +15°C° 0 mm 4 mps 755 mmHg 84%
    06:00 +17°C° 0 mm 4 mps 756 mmHg 76%
    07:00 +18°C° 0 mm 4 mps 756 mmHg 69%
    08:00 +20°C° 0 mm 5 mps 756 mmHg 64%
    09:00 +21°C° 0 mm 5 mps 756 mmHg 59%
    10:00 +22°C° 0 mm 5 mps 756 mmHg 55%
    11:00 +23°C° 0 mm 5 mps 756 mmHg 53%
    12:00 +23°C° 0 mm 5 mps 756 mmHg 52%
    13:00 +24°C° 0 mm 6 mps 756 mmHg 51%
    14:00 +24°C° 0 mm 6 mps 755 mmHg 52%
    15:00 +24°C° 0 mm 6 mps 755 mmHg 53%
    16:00 +24°C° 0 mm 6 mps 755 mmHg 54%
    17:00 +22°C° 0 mm 5 mps 755 mmHg 60%
    18:00 +21°C° 0 mm 4 mps 755 mmHg 66%
    19:00 +19°C° 0 mm 4 mps 755 mmHg 72%
    20:00 +18°C° 0 mm 4 mps 755 mmHg 75%
    21:00 +17°C° 0 mm 4 mps 755 mmHg 77%
    22:00 +15°C° 0 mm 4 mps 755 mmHg 80%
    23:00 +15°C° 0 mm 4 mps 755 mmHg 80%

    29 May, Tuesday

    Time Temperature Precipitation Wind Pressure Humidity
    00:00 +14°C° 0 mm 4 mps 755 mmHg 81%
    01:00 +14°C° 0 mm 4 mps 755 mmHg 81%
    02:00 +14°C° 0 mm 4 mps 755 mmHg 82%
    03:00 +13°C° 0 mm 4 mps 755 mmHg 82%
    04:00 +13°C° 0 mm 4 mps 755 mmHg 83%
    05:00 +15°C° 0 mm 5 mps 755 mmHg 78%
    06:00 +16°C° 0 mm 5 mps 754 mmHg 73%
    07:00 +19°C° 0 mm 5 mps 754 mmHg 68%
    08:00 +21°C° 0 mm 6 mps 754 mmHg 64%
    09:00 +22°C° 0 mm 6 mps 754 mmHg 60%
    10:00 +24°C° 0 mm 6 mps 754 mmHg 56%
    11:00 +24°C° 0 mm 6 mps 754 mmHg 54%
    12:00 +26°C° 0 mm 6 mps 753 mmHg 52%
    13:00 +27°C° 0 mm 6 mps 753 mmHg 50%
    14:00 +27°C° 0 mm 5 mps 752 mmHg 51%
    15:00 +26°C° 0 mm 5 mps 752 mmHg 52%
    16:00 +26°C° 0 mm 5 mps 752 mmHg 54%
    17:00 +25°C° 0 mm 5 mps 751 mmHg 60%
    18:00 +22°C° 0 mm 4 mps 751 mmHg 67%
    19:00 +21°C° 0 mm 4 mps 751 mmHg 74%
    20:00 +20°C° 0 mm 3 mps 751 mmHg 77%
    21:00 +19°C° 0 mm 3 mps 751 mmHg 80%
    22:00 +18°C° 0 mm 3 mps 751 mmHg 83%
    23:00 +17°C° 0 mm 3 mps 751 mmHg 85%

    30 May, Wednesday

    Time Temperature Precipitation Wind Pressure Humidity
    00:00 +17°C° 0 mm 3 mps 750 mmHg 86%
    01:00 +16°C° 0 mm 3 mps 750 mmHg 87%
    02:00 +16°C° 0 mm 3 mps 750 mmHg 88%
    03:00 +14°C° 0 mm 3 mps 750 mmHg 89%
    04:00 +14°C° 0 mm 3 mps 750 mmHg 90%
    05:00 +17°C° 0 mm 3 mps 750 mmHg 84%
    06:00 +19°C° 0 mm 3 mps 750 mmHg 78%
    07:00 +21°C° 0 mm 3 mps 750 mmHg 71%
    08:00 +22°C° 0 mm 3 mps 749 mmHg 65%
    09:00 +25°C° 0 mm 3 mps 749 mmHg 59%
    10:00 +27°C° 0 mm 3 mps 749 mmHg 53%
    11:00 +28°C° 0 mm 3 mps 749 mmHg 50%
    12:00 +29°C° 0 mm 3 mps 749 mmHg 48%
    13:00 +29°C° 0 mm 3 mps 748 mmHg 45%
    14:00 +29°C° 0 mm 3 mps 748 mmHg 47%
    15:00 +29°C° 0 mm 3 mps 748 mmHg 48%
    16:00 +29°C° 0 mm 3 mps 748 mmHg 50%
    17:00 +27°C° 0.1 mm 3 mps 748 mmHg 58%
    18:00 +25°C° 0.1 mm 3 mps 748 mmHg 67%
    19:00 +24°C° 0.1 mm 3 mps 747 mmHg 75%
    20:00 +21°C° 0 mm 3 mps 747 mmHg 79%
    21:00 +20°C° 0 mm 2 mps 748 mmHg 83%
    22:00 +19°C° 0 mm 2 mps 748 mmHg 87%
    23:00 +18°C° 0 mm 2 mps 748 mmHg 88%

    31 May, Thursday

    Time Temperature Precipitation Wind Pressure Humidity
    00:00 +18°C° 0 mm 2 mps 747 mmHg 89%
    01:00 +17°C° 0 mm 2 mps 747 mmHg 90%
    02:00 +17°C° 0 mm 2 mps 747 mmHg 90%
    03:00 +16°C° 0 mm 2 mps 747 mmHg 90%
    04:00 +16°C° 0 mm 2 mps 747 mmHg 89%
    05:00 +18°C° 0 mm 2 mps 747 mmHg 82%
    06:00 +20°C° 0 mm 2 mps 747 mmHg 75%
    07:00 +21°C° 0 mm 2 mps 747 mmHg 68%
    08:00 +24°C° 0 mm 2 mps 747 mmHg 62%
    09:00 +26°C° 0 mm 2 mps 747 mmHg 56%
    10:00 +27°C° 0 mm 3 mps 747 mmHg 50%
    11:00 +28°C° 0.1 mm 2 mps 746 mmHg 48%
    12:00 +28°C° 0.1 mm 2 mps 746 mmHg 46%
    13:00 +29°C° 0.1 mm 2 mps 746 mmHg 44%
    14:00 +29°C° 0 mm 2 mps 746 mmHg 45%
    15:00 +29°C° 0 mm 1 mps 746 mmHg 45%
    16:00 +29°C° 0 mm 1 mps 746 mmHg 45%
    17:00 +27°C° 0 mm 1 mps 746 mmHg 52%
    18:00 +25°C° 0 mm 2 mps 746 mmHg 59%
    19:00 +24°C° 0 mm 2 mps 746 mmHg 65%
    20:00 +23°C° 0 mm 2 mps 746 mmHg 68%
    21:00 +21°C° 0 mm 2 mps 746 mmHg 71%
    22:00 +19°C° 0 mm 3 mps 747 mmHg 74%
    23:00 +19°C° 0 mm 2 mps 747 mmHg 77%
    Show more